Greenville, AL

7:55 AM CDT on May 23, 2017 (GMT -0500)
Greenville Municipal

Weather History for KPRN - December, 2013

Change the Weather History Date:

Tuesday, December 3, 2013

  Actual Average Record
Temperature  
Mean Temperature 65 °F -  
Max Temperature 73 °F 63 °F 81 °F (1955)
Min Temperature 57 °F 40 °F 19 °F (1929)
Growing Degree Days 15 (Base 50)    
Moisture  
Dew Point 60 °F    
Average Humidity 90    
Maximum Humidity 100    
Minimum Humidity 68    
Precipitation  
Precipitation 0.50 in - - ()
Sea Level Pressure  
Sea Level Pressure 29.83 in    
Wind  
Wind Speed 4 mph (SSW)    
Max Wind Speed 8 mph    
Max Gust Speed -    
Visibility 8 miles    
Events Rain    
Averages and records for this station are not official NWS values.
T = Trace of Precipitation, MM = Missing Value Source: NWS Daily Summary

Daily Weather History Graph

Daily Weather History Graph

Search for Another Location

Airport or City:

Trip Planner

Search our weather history database for the weather conditions in past years. The results will help you decide how hot, cold, wet, or windy it might be!

Date:

Astronomy

Dec. 03, 2013 Rise Set
Actual Time 6:30 AM CST 4:42 PM CST
Civil Twilight 6:03 AM CST 5:08 PM CST
Nautical Twilight 5:33 AM CST 5:38 PM CST
Astronomical Twilight 5:04 AM CST 6:08 PM CST
Moon 7:00 AM CST (12/3) 5:43 PM CST (12/3)
Length of Visible Light 11h 04m
Length of Day
10h 11m
New Moon, 1% of the Moon is Illuminated
Dec 3
New Moon
Dec 9
First Quarter
Dec 17
Full
Dec 25
Last Quarter
Jan 1
New

Hourly Weather History & Observations

Time (CST) Temp. Dew Point Humidity Pressure Visibility Wind Dir Wind Speed Gust Speed Precip Events Conditions
12:37 AM 57.2 °F 53.6 °F 88% 29.82 in 10.0 mi South 4.6 mph - N/A   Overcast
12:56 AM 57.0 °F 54.0 °F 89% 29.81 in 10.0 mi South 5.8 mph - N/A   Overcast
1:56 AM 57.0 °F 55.0 °F 93% 29.80 in 10.0 mi Calm Calm - N/A   Overcast
2:27 AM 57.2 °F 55.4 °F 94% 29.80 in 10.0 mi South 4.6 mph - N/A   Mostly Cloudy
2:56 AM 57.0 °F 55.0 °F 93% 29.79 in 10.0 mi South 3.5 mph - N/A   Mostly Cloudy
3:14 AM 57.2 °F 55.4 °F 94% 29.80 in 10.0 mi South 4.6 mph - N/A   Overcast
3:56 AM 57.0 °F 55.0 °F 93% 29.79 in 10.0 mi South 4.6 mph - N/A   Overcast
4:34 AM 57.2 °F 55.4 °F 94% 29.80 in 9.0 mi South 3.5 mph - 0.00 in Rain Light Rain
4:45 AM 57.2 °F 55.4 °F 94% 29.80 in 4.0 mi Calm Calm - 0.03 in Rain Light Rain
4:56 AM 57.9 °F 55.9 °F 93% 29.80 in 8.0 mi NNW 5.8 mph - 0.03 in   Overcast
5:10 AM 57.2 °F 55.4 °F 94% 29.80 in 7.0 mi Variable 4.6 mph - N/A   Overcast
5:56 AM 59.0 °F 57.0 °F 93% 29.81 in 6.0 mi SSW 4.6 mph - N/A   Overcast
6:56 AM 59.0 °F 57.9 °F 96% 29.82 in 5.0 mi SSW 5.8 mph - N/A   Overcast
7:23 AM 60.8 °F 57.2 °F 88% 29.83 in 5.0 mi South 4.6 mph - N/A   Mostly Cloudy
7:39 AM 60.8 °F 57.2 °F 88% 29.84 in 6.0 mi South 3.5 mph - N/A   Overcast
7:56 AM 61.0 °F 59.0 °F 93% 29.83 in 7.0 mi South 3.5 mph - N/A   Overcast
8:11 AM 60.8 °F 59.0 °F 94% 29.84 in 10.0 mi South 4.6 mph - N/A   Overcast
8:43 AM 60.8 °F 59.0 °F 94% 29.85 in 1.8 mi Calm Calm - 0.07 in Rain Heavy Rain
8:56 AM 62.1 °F 60.1 °F 93% 29.85 in 2.0 mi Calm Calm - 0.14 in Rain Heavy Rain
9:10 AM - - N/A% - 1.5 mi Calm Calm - N/A Rain Heavy Rain
9:16 AM 62.6 °F 60.8 °F 94% 29.86 in 3.0 mi Calm Calm - 0.09 in Rain Light Rain
9:26 AM 62.6 °F 60.8 °F 94% 29.86 in 2.0 mi Calm Calm - 0.11 in Rain Rain
9:36 AM 62.6 °F 60.8 °F 94% 29.86 in 9.0 mi Calm Calm - 0.11 in Rain Light Rain
9:56 AM 63.0 °F 61.0 °F 93% 29.86 in 10.0 mi Calm Calm - 0.12 in   Overcast
10:15 AM 62.6 °F 62.6 °F 100% 29.87 in 1.8 mi SW 3.5 mph - 0.03 in Rain Rain
10:20 AM 62.6 °F 62.6 °F 100% 29.86 in 2.0 mi Calm Calm - 0.04 in Rain Heavy Rain
10:28 AM 62.6 °F 62.6 °F 100% 29.86 in 2.0 mi Calm Calm - 0.07 in Rain Heavy Rain
10:39 AM 64.4 °F 62.6 °F 94% 29.86 in 1.8 mi SW 4.6 mph - 0.11 in Rain Heavy Rain
10:56 AM 63.0 °F 62.1 °F 97% 29.83 in 2.5 mi SSE 4.6 mph - 0.17 in Rain Rain
11:03 AM 62.6 °F 62.6 °F 100% 29.84 in 6.0 mi South 3.5 mph - 0.00 in Rain Light Rain
11:21 AM 64.4 °F 62.6 °F 94% 29.84 in 5.0 mi SSW 4.6 mph - 0.03 in Rain Light Rain
11:39 AM 64.4 °F 62.6 °F 94% 29.83 in 10.0 mi West 3.5 mph - 0.03 in   Overcast
11:56 AM 66.0 °F 63.0 °F 90% 29.82 in 10.0 mi West 5.8 mph - 0.03 in   Overcast
12:14 PM 66.2 °F 64.4 °F 94% 29.81 in 10.0 mi South 5.8 mph - N/A   Overcast
12:56 PM 71.1 °F 64.9 °F 81% 29.78 in 8.0 mi SSW 3.5 mph - 0.01 in Rain Light Rain
1:56 PM 72.0 °F 62.1 °F 71% 29.77 in 10.0 mi SW 6.9 mph - 0.00 in   Overcast
2:56 PM 73.0 °F 62.1 °F 68% 29.76 in 10.0 mi SW 3.5 mph - N/A   Mostly Cloudy
3:56 PM 71.1 °F 61.0 °F 70% 29.77 in 10.0 mi SSW 3.5 mph - N/A   Overcast
4:56 PM 70.0 °F 59.0 °F 68% 29.80 in 10.0 mi SW 4.6 mph - N/A   Overcast
5:56 PM 68.0 °F 60.1 °F 76% 29.80 in 10.0 mi South 4.6 mph - N/A   Overcast
6:56 PM 66.0 °F 59.0 °F 78% 29.82 in 10.0 mi South 5.8 mph - N/A   Scattered Clouds
7:56 PM 66.9 °F 60.1 °F 79% 29.83 in 10.0 mi South 4.6 mph - N/A   Overcast
8:41 PM 66.2 °F 60.8 °F 83% 29.85 in 10.0 mi South 4.6 mph - N/A   Mostly Cloudy
8:56 PM 66.0 °F 61.0 °F 84% 29.84 in 10.0 mi South 5.8 mph - N/A   Overcast
9:56 PM 64.9 °F 63.0 °F 93% 29.85 in 10.0 mi South 5.8 mph - N/A   Overcast
10:06 PM 66.2 °F 62.6 °F 88% 29.86 in 10.0 mi South 3.5 mph - N/A   Overcast
10:16 PM 66.2 °F 62.6 °F 88% 29.86 in 10.0 mi South 4.6 mph - N/A   Overcast
10:45 PM 66.2 °F 62.6 °F 88% 29.87 in 10.0 mi South 5.8 mph - N/A   Overcast
10:56 PM 66.0 °F 63.0 °F 90% 29.86 in 10.0 mi South 5.8 mph - N/A   Overcast
11:56 PM 66.9 °F 64.0 °F 90% 29.87 in 10.0 mi SSW 8.1 mph - N/A   Overcast